EFSIEFJY [1234]

Guest
Details From EFSI - Seinajoki
To EFJY - Jyvaskyla
Flight Number 1234
Tags Real Commercial Decoded
Created
Modified
Stats Distance 80 nm / 149 km
Max Altitude 0 ft / 0 m
Waypoints 2
Social Downloads 1
Likes 0
Share VATSIM

Download

Looking for another format? Having issues loading an existing format? Contact us
Advertisement - Login to hide

Notes

Decoded

Route

EFSI EFJY

ID Type Via Altitude Latitude Longitude Leg Dist Tot Dist Heading (true) Name
O EFSI APT - 0 ft / 0 m 62.69711˚ 22.82189˚ - 0 nm - -
O EFJY APT - 0 ft / 0 m 62.40755˚ 25.66014˚ 80 nm 80 nm 101° / 104° -

Altitude Profile

Advertisement - Login to hide

EFSI

Details ICAO EFSI (SJY)
Name Seinajoki
Region Finland
Timezone Europe/Helsinki (UTC+2.0)
Stats Elevation 301 ft / 92 m (AMSL)
Location 62.692119° 22.832325°
Runways 1
Magnetic Variation 8.807° E

METAR

EFSI 151150Z AUTO 11006KT 9999 OVC008 M01/M03 Q0991

Decode

TAF

Not found

Departure Runways

ID Width Length Bearing (true) Bearing (mag) Surface Threshold Offset Overrun Length
14 98 ft / 30 m 5,048 ft / 1,539 m 136.22° 127.41° Asphalt 0 ft / 0 m 0 ft / 0 m
32 98 ft / 30 m 5,048 ft / 1,539 m 316.23° 307.42° Asphalt 0 ft / 0 m 0 ft / 0 m

EFJY

Details ICAO EFJY (JYV)
Name Jyvaskyla
Region Finland
Timezone Europe/Helsinki (UTC+2.0)
Stats Elevation 459 ft / 140 m (AMSL)
Location 62.399451° 25.678250°
Runways 1
Magnetic Variation 9.916° E

METAR

EFJY 151150Z 08005KT 9999 -SN FEW006 BKN008 M02/M04 Q0992

Decode

TAF

TAF EFJY 151131Z 1512/1612 11006KT 5000 -SN BKN006 TEMPO 1512/1516 2500 TEMPO 1516/1521 2500 -SN BKN004 BECMG 1521/1523 2500 BR BKN002 BECMG 1601/1603 9999 BKN008 TEMPO 1604/1612 2500 -SN

Decode

Destination Runways

ID Width Length Bearing (true) Bearing (mag) Surface Threshold Offset Overrun Length
12 197 ft / 60 m 8,511 ft / 2,594 m 133.97° 124.05° Asphalt 0 ft / 0 m 295 ft / 90 m
30 197 ft / 60 m 8,511 ft / 2,594 m 314.00° 304.08° Asphalt 0 ft / 0 m 295 ft / 90 m

Approach Navaids

Runway Type Ident Frequency Range Bearing (true) Bearing (mag) Slope Elevation
30 Localiser JY 110.90 MHz 18 nm / 33 km 313.96° 304.05° - 459 ft / 140 m (AMSL)
30 Glidescope JY 110.90 MHz 10 nm / 19 km 313.98° 304.07° 3.00° 459 ft / 140 m (AMSL)
30 DME JY 110.90 MHz 18 nm / 33 km - - - 459 ft / 140 m (AMSL)

Popular Alternatives